Weather History for Clyde, NU

Change the Weather History Date:

Sunday, September 9, 2012

  Actual Average Record
Temperature  
Mean Temperature 36 °F -  
Max Temperature 39 °F 32 °F 48 °F (2005)
Min Temperature 32 °F 23 °F 28 °F (1997)
Degree Days  
Heating Degree Days 30    
Moisture  
Dew Point 35 °F    
Average Humidity 92    
Maximum Humidity 100    
Minimum Humidity 63    
Precipitation  
Precipitation 0.00 in 0.05 in - ()
Sea Level Pressure  
Sea Level Pressure 29.70 in    
Wind  
Wind Speed 4 mph ()    
Max Wind Speed 16 mph    
Max Gust Speed 18 mph    
Visibility 8.9 miles    
Events Rain    
Averages and records for this station are not official NWS values.
T = Trace of Precipitation, MM = Missing Value Source: Averaged Metar Reports

Daily Weather History Graph

Daily Weather History Graph

Search for Another Location

Airport:

Trip Planner

Search our weather history database for the weather conditions in past years. The results will help you decide how hot, cold, wet, or windy it might be!

Date:

Astronomy

Sep. 09, 2012 Rise Set
Actual Time 6:22 AM ADT 8:37 PM ADT
Civil Twilight 5:13 AM ADT 9:45 PM ADT
Nautical Twilight 3:25 AM ADT 11:29 PM ADT
Astronomical Twilight Sun does not rise Sun does not rise
Moon No Moon Rise No Moon Set
Length of Visible Light 16h 32m
Length of Day
14h 14m
Last Quarter, 40% of the Moon is Illuminated
Sep 9
Last Quarter
Sep 15
New
Sep 22
First Quarter
Sep 30
Full
Oct 8
Last Quarter

Hourly Weather History & Observations

Time (ADT) Temp. Windchill Dew Point Humidity Pressure Visibility Wind Dir Wind Speed Gust Speed Precip Events Conditions
12:00 AM 39 °F - 31 °F 63% 29.80 in 9 mi WNW 2.3 mph - -  
12:00 AM 39.2 °F - 30.2 °F 70% 29.80 in 9.0 mi Calm Calm - N/A   Clear
1:00 AM 35.6 °F 32.8 °F 30.2 °F 81% 29.79 in 9.0 mi ESE 3.5 mph - N/A   Clear
2:00 AM 37.4 °F - 28.4 °F 70% 29.79 in 9.0 mi Calm Calm - N/A   Clear
3:00 AM 32 °F - 28 °F 81% 29.80 in 9 mi NW 2.3 mph - -  
3:00 AM 32.0 °F - 28.4 °F 87% 29.80 in 9.0 mi WNW 2.3 mph - N/A   Clear
4:00 AM 32.0 °F 27.5 °F 28.4 °F 87% 29.79 in 9.0 mi West 4.6 mph - N/A   Clear
5:00 AM 33.8 °F 30.8 °F 30.2 °F 87% 29.78 in 9.0 mi WSW 3.5 mph - N/A   Clear
6:00 AM 35 °F - 29 °F 71% 29.78 in 9 mi WSW 3.5 mph - -  
6:00 AM 33.8 °F 30.8 °F 28.4 °F 81% 29.78 in 9.0 mi WSW 3.5 mph - N/A   Partly Cloudy
7:00 AM 33.8 °F - 30.2 °F 87% 29.78 in 25.0 mi Calm Calm - N/A   Mostly Cloudy
8:00 AM 35.6 °F - 32.0 °F 87% 29.77 in 25.0 mi Calm Calm - N/A   Mostly Cloudy
9:00 AM 38 °F - 35 °F 87% 29.77 in 9 mi ESE 10.4 mph - -  
9:00 AM 37.4 °F 29.3 °F 35.6 °F 93% 29.77 in 25.0 mi SE 12.7 mph - N/A   Mostly Cloudy
10:00 AM 37.4 °F 32.1 °F 35.6 °F 93% 29.77 in 25.0 mi ESE 6.9 mph - N/A   Mostly Cloudy
11:00 AM 39.2 °F 32.0 °F 37.4 °F 93% 29.75 in 25.0 mi SSE 11.5 mph - N/A   Mostly Cloudy
12:00 PM 39 °F - 38 °F 93% 29.75 in 9 mi SE 6.9 mph - - Rain Light Rain
12:00 PM 39.2 °F 34.2 °F 37.4 °F 93% 29.75 in 15.0 mi SE 6.9 mph - N/A Rain Light Rain
1:00 PM 39.2 °F 33.6 °F 37.4 °F 93% 29.74 in 15.0 mi SE 8.1 mph - N/A Rain Light Rain
2:00 PM 39.2 °F 33.0 °F 35.6 °F 87% 29.72 in 15.0 mi SE 9.2 mph - N/A Rain Light Rain
3:00 PM 38 °F - 36 °F 91% 29.72 in 9 mi SSE 5.8 mph - -   Overcast
3:00 PM 39.2 °F 35.9 °F 35.6 °F 87% 29.72 in 15.0 mi SSE 4.6 mph - N/A Rain Light Rain
4:00 PM 39.2 °F 35.9 °F 37.4 °F 93% 29.71 in 15.0 mi SE 4.6 mph - N/A Rain Light Rain
4:51 PM 37.4 °F 28.2 °F 35.6 °F 93% 29.68 in 9.0 mi SSE 16.1 mph - N/A Rain Light Rain
5:00 PM 37.4 °F 29.3 °F 35.6 °F 93% 29.69 in 8.0 mi SE 12.7 mph 18.4 mph N/A Rain Light Rain
5:20 PM 37.4 °F 30.8 °F 35.6 °F 93% 29.67 in 8.0 mi SSE 9.2 mph - N/A Rain Rain
5:46 PM 37.4 °F 31.4 °F 35.6 °F 93% 29.66 in 8.0 mi SE 8.1 mph - N/A Rain Light Rain
6:00 PM 38 °F - 36 °F 92% 29.68 in 9 mi SE 6.9 mph - - Rain Light Rain
6:00 PM 37.4 °F 30.8 °F 37.4 °F 100% 29.68 in 9.0 mi SE 9.2 mph - N/A Rain Light Rain
7:00 PM 37.4 °F 31.4 °F 35.6 °F 93% 29.67 in 8.0 mi SE 8.1 mph - N/A Rain Rain
7:51 PM 37.4 °F - 37.4 °F 100% 29.65 in 9.0 mi Calm Calm - N/A   Overcast
8:00 PM 37.4 °F - 37.4 °F 100% 29.66 in 9.0 mi Calm Calm - N/A   Overcast
8:14 PM 37.4 °F - 37.4 °F 100% 29.64 in 9.0 mi West 2.3 mph - N/A Rain Light Rain
8:15 PM 37.4 °F - 37.4 °F 100% 29.64 in 9.0 mi West 2.3 mph - N/A   Overcast
8:17 PM 37.4 °F - 37.4 °F 100% 29.64 in 9.0 mi West 2.3 mph - N/A Rain Light Rain
8:18 PM 37.4 °F - 37.4 °F 100% 29.64 in 9.0 mi West 2.3 mph - N/A   Overcast
8:39 PM 37.4 °F - 37.4 °F 100% 29.64 in 9.0 mi Calm Calm - N/A   Overcast
8:59 PM 37.4 °F 34.9 °F 37.4 °F 100% 29.63 in 9.0 mi West 3.5 mph - N/A Rain Light Rain
9:00 PM 37 °F - 37 °F 98% 29.64 in 9 mi WSW 3.5 mph - -   Overcast
9:00 PM 37.4 °F 34.9 °F 37.4 °F 100% 29.64 in 9.0 mi West 3.5 mph - N/A   Overcast
9:18 PM 37.4 °F - 37.4 °F 100% 29.63 in 9.0 mi Calm Calm - N/A   Overcast
9:31 PM 37.4 °F - 37.4 °F 100% 29.62 in 9.0 mi SSE 2.3 mph - N/A   Overcast
10:00 PM 37.4 °F 32.1 °F 37.4 °F 100% 29.62 in 6.0 mi ESE 6.9 mph - N/A   Overcast
10:10 PM 37.4 °F 33.8 °F 37.4 °F 100% 29.61 in 6.0 mi ESE 4.6 mph - N/A   Overcast
10:26 PM 37.4 °F 33.8 °F 37.4 °F 100% 29.61 in 6.0 mi SE 4.6 mph - N/A   Overcast
10:51 PM 37.4 °F 32.8 °F 37.4 °F 100% 29.60 in 5.0 mi ESE 5.8 mph - N/A   Overcast
11:00 PM 37.4 °F 32.8 °F 37.4 °F 100% 29.61 in 5.0 mi ESE 5.8 mph - N/A   Overcast
11:01 PM 37.4 °F 33.8 °F 37.4 °F 100% 29.60 in 5.0 mi ESE 4.6 mph - N/A   Overcast
11:10 PM 37.4 °F 34.9 °F 37.4 °F 100% 29.60 in 5.0 mi SE 3.5 mph - N/A   Overcast
11:38 PM 37.4 °F 33.8 °F 37.4 °F 100% 29.59 in 5.0 mi ESE 4.6 mph - N/A   Overcast